Tracking 30072 objects as of 14-Jan-2025
HD Live streaming from Space Station
objects crossing your sky now

STARLINK-5756

Track STARLINK-5756 now!
10-day predictions
STARLINK-5756 is classified as:


NORAD ID: 55598
Int'l Code: 2023-020AF
Perigee: 563.7 km
Apogee: 568.5 km
Inclination: 43.0 °
Period: 95.8 minutes
Semi major axis: 6937 km
RCS: Unknown
Launch date: February 12, 2023
Source: United States (US)
Launch site: AIR FORCE EASTERN TEST RANGE (AFETR)
Your satellite tracking list
Your tracking list is empty




NASA's NSSDC Master Catalog

Two Line Element Set (TLE):
1 55598U 23020AF  25013.28340491  .00010683  00000-0  80395-3 0  9997
2 55598  43.0033 116.5027 0003430 279.8011  80.2444 15.02570621105824
Source of the keplerian elements: AFSPC